Home   Weather   Kopervik   Past weeks

Flag for Norway Past Weather in Kopervik, Norway — Yesterday and Last 2 Weeks

Now
39 °F

Scattered showers. Scattered clouds.


Feels Like: 31 °F
Forecast: 37 / 41 °F
Wind: 15 mph from North

Location: Karmoy

Current Time: Apr 23, 2017 at 10:25:56 am

Latest Report: Apr 23, 2017 at 9:50 am


Visibility: N/A

Pressure: 30.04 "Hg

Humidity: 75%

Dew Point: 32 °F

Location of KopervikLocation

Past Weather in Kopervik — Graph

°F

Kopervik Temperature Yesterday

Maximum temperature yesterday: 46 °F (at 10:50 am)
Minimum temperature yesterday: 39 °F (at 12:20 am)
Average temperature yesterday: 43 °F

High & Low Weather Summary for the Past Weeks

 TemperatureHumidityPressure
High50 °F (Apr 9, 4:50 pm)100% (Apr 9, 12:50 am)30.57 "Hg (Apr 9, 12:50 am)
Low30 °F (Apr 14, 6:50 am)49% (Apr 18, 10:50 am)29.45 "Hg (Apr 12, 6:20 pm)
Average42 °F81%29.96 "Hg
* Reported Apr 8 9:20 am — Apr 23 9:20 am, Kopervik, Weather by CustomWeather, © 2017

Note: Actual official high and low records may vary slightly from our data, if they occured in-between our weather recording intervals... More about our weather records

Advertising

Kopervik Weather History for the Previous 24 Hours

Scroll right to see more
 ConditionsComfort  
Time TempWeatherWind HumidityBarometerVisibility
9:20 am
Sun, Apr 23
41 °FScattered clouds.20 mph66%30.04 "HgN/A
8:50 am41 °FPassing clouds.15 mph70%30.04 "HgN/A
8:20 am39 °FPassing clouds.15 mph75%30.04 "HgN/A
7:50 am37 °FBroken clouds.9 mph81%30.04 "HgN/A
7:20 am36 °FPartly sunny.10 mph87%30.04 "HgN/A
6:50 am36 °FDrizzle. Cloudy.14 mph93%30.07 "HgN/A
6:20 am34 °FLight snow. Fog.21 mph93%30.07 "Hg3 mi
5:50 am37 °FPassing clouds.17 mph75%30.04 "HgN/A
5:20 am36 °FPartly cloudy.17 mph87%30.07 "HgN/A
4:50 am37 °FChilly.17 mph75%30.04 "HgN/A
4:20 am37 °FPassing clouds.12 mph75%30.04 "HgN/A
3:50 am39 °FPassing clouds.20 mph70%30.04 "HgN/A
3:20 am37 °FPassing clouds.17 mph81%30.07 "HgN/A
2:50 am36 °FLight rain. Partly cloudy.23 mph87%30.07 "HgN/A
2:20 am37 °FPartly cloudy.26 mph87%30.07 "HgN/A
1:50 am37 °FPassing clouds.17 mph81%30.07 "HgN/A
1:20 am37 °FPassing clouds.21 mph75%30.07 "HgN/A
12:50 am39 °FPassing clouds.23 mph65%30.07 "HgN/A
12:20 am37 °FPassing clouds.21 mph70%30.07 "HgN/A
11:50 pm
Sat, Apr 22
41 °FPartly cloudy.21 mph66%30.07 "HgN/A
11:20 pm39 °FPartly cloudy.25 mph75%30.07 "HgN/A
10:50 pm41 °FPassing clouds.21 mph70%30.07 "HgN/A
10:20 pm41 °FLight rain. Passing clouds.23 mph70%30.07 "HgN/A
9:50 pm41 °FLight rain. Partly cloudy.25 mph76%30.07 "HgN/A
9:20 pm41 °FPartly cloudy.24 mph81%30.07 "HgN/A
8:20 pm41 °FBroken clouds.24 mph81%30.07 "HgN/A
7:50 pm41 °FScattered showers. Partly sunny.23 mph81%30.07 "HgN/A
7:20 pm41 °FScattered showers. Scattered clouds.21 mph81%30.07 "HgN/A
6:50 pm43 °FScattered showers. Broken clouds.17 mph81%30.07 "HgN/A
6:20 pm39 °FSprinkles. Broken clouds.23 mph87%30.07 "HgN/A
5:50 pm43 °FBroken clouds.20 mph76%30.07 "HgN/A
5:20 pm41 °FScattered clouds.20 mph81%30.07 "HgN/A
4:50 pm45 °FScattered clouds.17 mph71%30.07 "HgN/A
4:20 pm45 °FScattered showers. Scattered clouds.15 mph71%30.07 "HgN/A
3:50 pm45 °FScattered showers. Scattered clouds.12 mph71%30.07 "HgN/A
3:20 pm43 °FSprinkles. Broken clouds.23 mph76%30.07 "HgN/A
2:50 pm46 °FPartly sunny.14 mph71%30.07 "HgN/A
1:50 pm46 °FPassing clouds.16 mph66%30.07 "HgN/A
1:20 pm45 °FScattered clouds.18 mph71%30.07 "HgN/A
12:50 pm46 °FScattered clouds.16 mph66%30.07 "HgN/A
12:20 pm46 °FPassing clouds.15 mph66%30.07 "HgN/A
11:50 am46 °FPassing clouds.18 mph66%30.07 "HgN/A
11:20 am46 °FPassing clouds.18 mph62%30.07 "HgN/A
10:50 am46 °FPassing clouds.17 mph66%30.04 "HgN/A
10:20 am45 °FPassing clouds.21 mph66%30.04 "HgN/A
Weather by CustomWeather, © 2017

See weather overviewHow to use our weather pages